GFSSW_prec_precacc_213.txt.gz
Total_Precipitation_Accumulation
0.10 0.12 0.13 0.13 0.13 0.14 0.15 0.16 0.16 0.16 0.15 0.14 0.14 0.12 0.12 0.15 0.12 0.08 0.05 0.05 0.02 0.00 0.01 0.01 0.02 0.03 0.05 0.01 0.00 0.02 0.04 0.01 0.00 0.00 0.00 0.00 0.00 0.00 0.00 0.00 0.00 0.00 0.00 0.00 0.00
0.09 0.11 0.13 0.13 0.14 0.14 0.15 0.16 0.15 0.15 0.14 0.17 0.19 0.20 0.27 0.24 0.05 0.05 0.07 0.02 0.01 0.01 0.01 0.01 0.02 0.04 0.03 0.01 0.01 0.05 0.03 0.00 0.00 0.00 0.00 0.00 0.00 0.00 0.00 0.00 0.00 0.00 0.00 0.00 0.00
0.10 0.10 0.10 0.12 0.13 0.14 0.15 0.16 0.16 0.15 0.14 0.16 0.20 0.33 0.45 0.16 0.03 0.05 0.04 0.03 0.06 0.03 0.01 0.00 0.02 0.07 0.04 0.03 0.02 0.04 0.02 0.00 0.00 0.00 0.00 0.00 0.00 0.00 0.00 0.00 0.00 0.00 0.00 0.00 0.00
0.15 0.14 0.12 0.11 0.15 0.16 0.16 0.15 0.17 0.18 0.18 0.17 0.26 0.43 0.34 0.10 0.05 0.02 0.03 0.02 0.04 0.03 0.03 0.02 0.04 0.09 0.06 0.05 0.04 0.07 0.00 0.00 0.00 0.00 0.01 0.02 0.01 0.01 0.00 0.00 0.00 0.00 0.00 0.00 0.00
0.15 0.18 0.20 0.19 0.19 0.19 0.16 0.15 0.16 0.19 0.18 0.19 0.32 0.49 0.28 0.12 0.04 0.00 0.00 0.02 0.03 0.03 0.05 0.03 0.05 0.11 0.11 0.05 0.07 0.09 0.04 0.03 0.02 0.04 0.04 0.03 0.04 0.02 0.00 0.00 0.00 0.00 0.00 0.00 0.00
0.21 0.25 0.24 0.28 0.31 0.26 0.19 0.21 0.24 0.25 0.20 0.20 0.41 0.45 0.28 0.12 0.00 0.00 0.00 0.00 0.01 0.03 0.05 0.08 0.06 0.08 0.12 0.04 0.07 0.09 0.05 0.03 0.03 0.03 0.03 0.07 0.05 0.03 0.00 0.00 0.00 0.00 0.00 0.00 0.00
0.23 0.26 0.35 0.35 0.25 0.26 0.33 0.36 0.32 0.25 0.26 0.34 0.47 0.37 0.30 0.06 0.00 0.00 0.01 0.04 0.04 0.07 0.04 0.03 0.09 0.14 0.15 0.07 0.02 0.03 0.05 0.01 0.00 0.01 0.02 0.13 0.13 0.01 0.00 0.01 0.03 0.01 0.00 0.00 0.00
0.26 0.26 0.31 0.30 0.40 0.41 0.34 0.30 0.39 0.42 0.42 0.40 0.33 0.39 0.29 0.00 0.00 0.00 0.00 0.03 0.08 0.13 0.13 0.12 0.12 0.08 0.08 0.08 0.06 0.09 0.14 0.07 0.00 0.02 0.06 0.29 0.32 0.00 0.00 0.03 0.01 0.00 0.00 0.00 0.00
0.34 0.33 0.32 0.33 0.35 0.42 0.43 0.44 0.41 0.38 0.44 0.43 0.44 0.49 0.18 0.00 0.00 0.00 0.00 0.00 0.05 0.15 0.16 0.16 0.13 0.11 0.10 0.19 0.19 0.12 0.14 0.04 0.01 0.06 0.24 0.33 0.22 0.00 0.00 0.02 0.02 0.02 0.02 0.01 0.00
0.42 0.42 0.40 0.40 0.47 0.65 0.71 0.61 0.46 0.44 0.32 0.45 0.74 0.88 0.17 0.00 0.00 0.00 0.00 0.00 0.01 0.11 0.23 0.23 0.27 0.23 0.21 0.30 0.22 0.07 0.12 0.05 0.06 0.06 0.24 0.33 0.25 0.04 0.01 0.03 0.02 0.01 0.00 0.00 0.00
0.46 0.51 0.53 0.60 0.63 0.87 1.04 0.93 0.95 0.82 0.72 0.36 0.29 0.22 0.04 0.02 0.04 0.02 0.01 0.01 0.02 0.11 0.10 0.10 0.16 0.23 0.14 0.16 0.07 0.10 0.15 0.13 0.02 0.01 0.19 0.25 0.18 0.06 0.03 0.03 0.00 0.00 0.00 0.00 0.00
0.59 0.62 0.78 0.88 0.85 0.90 0.95 0.80 0.57 0.87 0.61 0.18 0.12 0.10 0.05 0.04 0.11 0.09 0.11 0.13 0.06 0.04 0.06 0.14 0.17 0.02 0.02 0.06 0.11 0.14 0.13 0.06 0.06 0.03 0.11 0.10 0.05 0.03 0.04 0.01 0.00 0.00 0.00 0.00 0.01
0.78 0.81 0.94 1.06 1.16 0.96 0.70 0.55 0.50 0.77 1.14 0.27 0.07 0.05 0.01 0.08 0.11 0.11 0.14 0.20 0.09 0.04 0.04 0.05 0.08 0.01 0.03 0.05 0.07 0.07 0.13 0.08 0.05 0.01 0.02 0.02 0.02 0.00 0.00 0.00 0.00 0.00 0.00 0.00 0.02
0.92 1.03 1.19 1.31 1.38 0.86 0.83 0.77 0.76 1.32 2.22 0.47 0.03 0.03 0.01 0.09 0.16 0.06 0.11 0.17 0.24 0.07 0.05 0.09 0.01 0.03 0.06 0.05 0.06 0.07 0.01 0.03 0.04 0.13 0.10 0.06 0.12 0.00 0.00 0.00 0.00 0.00 0.00 0.00 0.02
1.28 1.30 1.45 1.74 1.16 0.99 0.82 0.91 1.38 2.27 3.17 0.37 0.04 0.02 0.02 0.12 0.08 0.03 0.18 0.41 0.28 0.13 0.18 0.10 0.01 0.02 0.05 0.04 0.06 0.05 0.05 0.07 0.05 0.09 0.11 0.06 0.16 0.04 0.00 0.00 0.00 0.00 0.00 0.00 0.00
1.25 1.69 1.58 1.41 1.30 0.75 0.79 1.57 2.46 3.66 2.84 0.34 0.15 0.11 0.14 0.08 0.02 0.12 0.27 0.60 0.46 0.29 0.31 0.14 0.02 0.05 0.02 0.02 0.07 0.08 0.12 0.16 0.20 0.22 0.65 0.22 0.09 0.05 0.00 0.00 0.00 0.00 0.00 0.00 0.00
1.71 1.90 2.02 1.50 1.32 1.09 1.74 3.12 4.17 3.27 0.76 0.36 0.20 0.21 0.24 0.19 0.14 0.15 0.39 0.63 0.69 0.84 0.67 0.38 0.09 0.01 0.07 0.10 0.13 0.33 0.43 0.84 1.06 0.99 0.82 0.08 0.07 0.04 0.00 0.00 0.00 0.00 0.00 0.00 0.00
1.94 2.05 1.53 1.34 1.17 1.88 3.01 4.14 4.51 1.01 0.29 0.23 0.19 0.26 0.33 0.36 0.29 0.15 0.35 0.66 0.58 0.47 0.58 0.42 0.26 0.06 0.08 0.08 0.14 0.28 0.75 0.86 0.62 0.53 0.21 0.04 0.04 0.01 0.00 0.00 0.00 0.00 0.00 0.00 0.00
2.11 1.85 1.77 1.25 1.10 2.18 3.87 4.80 2.13 0.50 0.27 0.22 0.20 0.41 0.42 0.65 0.68 0.35 0.22 0.36 0.63 0.63 0.90 0.76 0.21 0.04 0.03 0.01 0.07 0.15 0.48 0.54 0.31 0.16 0.23 0.12 0.04 0.00 0.00 0.00 0.00 0.00 0.00 0.00 0.00
2.30 2.07 2.00 1.47 1.90 2.87 4.17 3.03 0.77 0.21 0.30 0.28 0.45 0.41 0.56 0.58 0.95 0.90 0.49 0.13 0.24 0.62 0.94 0.90 0.63 0.09 0.08 0.12 0.09 0.09 0.13 0.41 1.04 0.97 0.30 0.06 0.02 0.00 0.00 0.00 0.00 0.00 0.00 0.00 0.00
2.66 2.76 1.78 1.91 2.98 4.09 4.01 1.35 0.26 0.09 0.28 0.58 0.43 0.41 0.41 0.72 0.91 0.97 0.84 0.21 0.09 0.17 0.68 1.35 1.07 0.31 0.22 0.33 0.18 0.27 0.31 0.48 0.93 0.63 0.40 0.19 0.02 0.01 0.01 0.01 0.00 0.00 0.00 0.00 0.00
3.18 2.87 1.78 2.29 4.01 3.91 1.75 0.48 0.19 0.11 0.24 0.40 0.48 0.30 0.19 0.36 1.05 1.09 0.67 0.59 0.38 0.29 0.28 0.68 1.46 0.67 0.26 0.28 0.25 0.23 0.61 0.72 0.94 0.76 0.44 0.36 0.15 0.01 0.02 0.01 0.00 0.00 0.00 0.00 0.00
3.59 2.37 2.59 2.64 3.18 2.07 0.83 0.33 0.30 0.19 0.28 0.43 0.34 0.30 0.25 0.33 1.01 0.74 0.76 0.54 0.63 0.60 0.52 0.51 1.29 1.17 0.68 0.66 0.49 0.53 0.26 0.41 0.46 0.39 0.30 0.40 0.17 0.03 0.06 0.02 0.01 0.01 0.00 0.00 0.00
4.07 3.13 3.51 3.96 2.18 0.98 0.78 0.58 0.45 0.22 0.24 0.32 0.28 0.38 0.58 0.42 0.54 0.62 0.49 0.43 0.40 0.66 0.61 0.77 0.96 0.78 0.62 1.03 1.10 0.98 0.74 0.36 0.48 0.50 0.20 0.16 0.07 0.09 0.10 0.05 0.02 0.01 0.01 0.00 0.00
3.92 2.65 2.03 2.52 1.80 0.96 1.20 0.99 0.34 0.32 0.43 0.54 0.45 0.30 0.52 0.86 0.61 0.54 0.42 0.53 0.57 0.75 0.98 1.39 1.21 0.51 0.16 0.10 0.29 0.42 0.66 0.57 0.59 0.35 0.30 0.08 0.01 0.03 0.10 0.07 0.04 0.04 0.01 0.00 0.00
3.17 1.69 1.63 1.09 0.64 1.10 1.50 1.07 0.29 0.36 0.53 0.42 0.45 0.19 0.32 0.48 0.43 0.61 0.80 0.78 0.92 0.93 1.46 1.65 1.35 0.47 0.18 0.04 0.06 0.12 0.16 0.30 0.38 0.19 0.10 0.05 0.03 0.03 0.03 0.09 0.14 0.10 0.05 0.01 0.00
2.22 1.28 1.90 1.82 1.08 1.40 1.29 0.79 0.67 0.67 0.48 0.13 0.16 0.47 0.38 0.25 0.25 0.61 0.85 0.84 0.88 0.89 1.23 1.47 1.09 0.61 0.44 0.14 0.26 0.32 0.06 0.11 0.23 0.24 0.18 0.17 0.12 0.02 0.03 0.13 0.41 0.22 0.09 0.06 0.01

GFSSW_prec_precacc_219.txt.gz
Total_Precipitation_Accumulation
0.10 0.12 0.14 0.14 0.14 0.15 0.16 0.17 0.18 0.17 0.16 0.15 0.15 0.13 0.14 0.16 0.13 0.09 0.06 0.05 0.02 0.00 0.01 0.01 0.02 0.04 0.15 0.13 0.04 0.03 0.04 0.01 0.00 0.00 0.00 0.00 0.00 0.00 0.00 0.00 0.00 0.00 0.00 0.00 0.00
0.09 0.11 0.14 0.14 0.15 0.15 0.16 0.16 0.15 0.15 0.15 0.18 0.20 0.21 0.28 0.26 0.06 0.06 0.07 0.02 0.01 0.01 0.01 0.01 0.02 0.05 0.08 0.11 0.10 0.06 0.03 0.00 0.00 0.00 0.00 0.00 0.00 0.00 0.00 0.00 0.00 0.00 0.00 0.00 0.00
0.11 0.12 0.12 0.13 0.15 0.15 0.16 0.16 0.16 0.15 0.14 0.16 0.21 0.34 0.46 0.18 0.04 0.05 0.04 0.03 0.06 0.03 0.01 0.00 0.02 0.10 0.10 0.10 0.10 0.04 0.02 0.00 0.00 0.00 0.00 0.00 0.00 0.00 0.00 0.00 0.00 0.00 0.00 0.00 0.00
0.16 0.15 0.14 0.14 0.17 0.17 0.16 0.15 0.17 0.19 0.18 0.17 0.28 0.45 0.36 0.14 0.06 0.02 0.03 0.02 0.04 0.03 0.03 0.02 0.06 0.13 0.09 0.08 0.08 0.09 0.00 0.00 0.00 0.00 0.01 0.02 0.01 0.01 0.00 0.00 0.00 0.00 0.00 0.00 0.00
0.17 0.20 0.22 0.21 0.20 0.20 0.16 0.15 0.16 0.20 0.19 0.19 0.33 0.50 0.32 0.15 0.04 0.00 0.00 0.02 0.03 0.05 0.05 0.04 0.06 0.13 0.13 0.06 0.09 0.12 0.04 0.03 0.02 0.04 0.04 0.03 0.04 0.02 0.00 0.00 0.00 0.00 0.00 0.00 0.00
0.23 0.26 0.26 0.29 0.31 0.27 0.20 0.22 0.25 0.26 0.21 0.20 0.42 0.48 0.33 0.13 0.00 0.00 0.00 0.00 0.01 0.05 0.10 0.10 0.07 0.10 0.15 0.05 0.09 0.10 0.06 0.04 0.03 0.04 0.04 0.07 0.05 0.03 0.00 0.00 0.00 0.00 0.00 0.00 0.00
0.24 0.28 0.37 0.36 0.25 0.26 0.34 0.36 0.32 0.25 0.26 0.34 0.49 0.43 0.33 0.07 0.00 0.00 0.01 0.04 0.04 0.07 0.05 0.09 0.15 0.24 0.22 0.11 0.03 0.05 0.08 0.04 0.01 0.01 0.03 0.13 0.13 0.01 0.00 0.01 0.03 0.01 0.00 0.00 0.00
0.28 0.28 0.31 0.31 0.40 0.42 0.34 0.30 0.39 0.42 0.42 0.41 0.35 0.46 0.31 0.00 0.00 0.00 0.00 0.03 0.08 0.13 0.14 0.16 0.31 0.26 0.25 0.19 0.09 0.13 0.19 0.10 0.00 0.02 0.06 0.30 0.33 0.00 0.00 0.03 0.01 0.00 0.00 0.00 0.00
0.36 0.34 0.33 0.33 0.35 0.42 0.43 0.45 0.41 0.38 0.44 0.43 0.46 0.54 0.20 0.00 0.00 0.00 0.00 0.00 0.05 0.16 0.18 0.29 0.40 0.26 0.27 0.33 0.31 0.19 0.16 0.04 0.01 0.06 0.24 0.33 0.22 0.00 0.00 0.02 0.02 0.02 0.02 0.01 0.00
0.43 0.43 0.40 0.40 0.48 0.65 0.71 0.61 0.46 0.44 0.32 0.45 0.75 0.93 0.18 0.00 0.00 0.00 0.00 0.00 0.01 0.13 0.32 0.37 0.41 0.34 0.36 0.52 0.39 0.10 0.12 0.05 0.06 0.06 0.24 0.33 0.25 0.04 0.01 0.03 0.02 0.01 0.00 0.00 0.00
0.47 0.52 0.53 0.60 0.63 0.87 1.04 0.93 0.95 0.84 0.72 0.36 0.31 0.26 0.06 0.03 0.05 0.02 0.01 0.01 0.03 0.14 0.13 0.21 0.29 0.28 0.17 0.25 0.12 0.11 0.15 0.13 0.02 0.01 0.19 0.25 0.18 0.06 0.03 0.03 0.00 0.00 0.00 0.00 0.00
0.60 0.62 0.79 0.88 0.85 0.90 0.95 0.80 0.62 0.97 0.65 0.18 0.12 0.10 0.05 0.04 0.12 0.09 0.11 0.16 0.08 0.05 0.08 0.31 0.24 0.02 0.03 0.09 0.18 0.19 0.14 0.06 0.06 0.03 0.11 0.10 0.05 0.03 0.04 0.01 0.00 0.00 0.00 0.00 0.01
0.78 0.82 0.95 1.06 1.16 0.96 0.70 0.55 0.52 0.79 1.16 0.27 0.07 0.05 0.01 0.08 0.11 0.11 0.16 0.33 0.15 0.08 0.07 0.12 0.11 0.03 0.06 0.13 0.16 0.25 0.21 0.08 0.05 0.01 0.02 0.02 0.02 0.00 0.00 0.00 0.00 0.00 0.00 0.00 0.02
0.93 1.05 1.21 1.33 1.38 0.86 0.83 0.77 0.76 1.34 2.24 0.47 0.04 0.05 0.01 0.09 0.16 0.06 0.13 0.39 0.53 0.10 0.09 0.13 0.05 0.12 0.14 0.14 0.16 0.17 0.11 0.04 0.04 0.13 0.10 0.06 0.12 0.00 0.00 0.00 0.00 0.00 0.00 0.00 0.02
1.29 1.30 1.46 1.76 1.16 0.99 0.82 0.91 1.39 2.28 3.18 0.37 0.07 0.04 0.03 0.14 0.10 0.05 0.18 0.49 0.62 0.41 0.23 0.13 0.03 0.18 0.19 0.14 0.13 0.10 0.06 0.10 0.08 0.10 0.11 0.06 0.16 0.04 0.00 0.00 0.00 0.00 0.00 0.00 0.00
1.26 1.70 1.59 1.41 1.30 0.75 0.79 1.57 2.46 3.66 2.84 0.34 0.16 0.11 0.14 0.11 0.04 0.21 0.38 0.66 0.74 0.72 0.48 0.16 0.03 0.11 0.10 0.07 0.12 0.13 0.20 0.29 0.38 0.36 0.75 0.22 0.09 0.05 0.00 0.00 0.00 0.00 0.00 0.00 0.00
1.71 1.90 2.02 1.50 1.32 1.09 1.74 3.12 4.17 3.27 0.76 0.36 0.20 0.21 0.24 0.22 0.16 0.18 0.83 0.84 0.91 1.35 1.11 0.47 0.14 0.02 0.12 0.19 0.35 0.64 0.71 1.18 1.46 1.40 0.96 0.08 0.07 0.04 0.00 0.00 0.00 0.00 0.00 0.00 0.00
1.94 2.05 1.53 1.34 1.17 1.88 3.01 4.14 4.51 1.01 0.29 0.23 0.19 0.26 0.35 0.40 0.34 0.17 0.37 0.74 0.73 0.73 1.11 0.60 0.35 0.08 0.11 0.15 0.28 0.66 0.99 1.02 0.75 0.62 0.22 0.04 0.04 0.01 0.00 0.00 0.00 0.00 0.00 0.00 0.00
2.11 1.85 1.77 1.25 1.10 2.18 3.87 4.80 2.13 0.50 0.27 0.23 0.20 0.41 0.43 0.66 0.84 0.49 0.23 0.38 0.71 0.84 1.26 1.14 0.25 0.04 0.03 0.03 0.10 0.29 0.67 0.56 0.32 0.16 0.23 0.12 0.04 0.00 0.00 0.00 0.00 0.00 0.00 0.00 0.00
2.30 2.07 2.00 1.47 1.90 2.87 4.17 3.03 0.77 0.21 0.30 0.29 0.47 0.43 0.57 0.59 1.01 1.04 0.58 0.15 0.26 0.65 1.07 1.27 0.80 0.11 0.10 0.16 0.14 0.15 0.22 0.46 1.13 0.98 0.30 0.06 0.02 0.00 0.00 0.00 0.00 0.00 0.00 0.00 0.00
2.66 2.76 1.78 1.91 2.98 4.09 4.01 1.35 0.26 0.09 0.28 0.58 0.44 0.43 0.42 0.74 0.95 1.10 1.14 0.29 0.13 0.19 0.73 1.61 1.34 0.42 0.27 0.41 0.20 0.31 0.39 0.51 0.96 0.64 0.40 0.19 0.02 0.01 0.01 0.01 0.00 0.00 0.00 0.00 0.00
3.18 2.87 1.78 2.29 4.01 3.91 1.75 0.48 0.19 0.11 0.24 0.41 0.49 0.31 0.21 0.37 1.05 1.20 0.83 0.75 0.41 0.30 0.31 0.79 1.73 0.77 0.29 0.30 0.26 0.23 0.62 0.73 0.95 0.77 0.44 0.36 0.15 0.01 0.02 0.01 0.00 0.00 0.00 0.00 0.00
3.59 2.37 2.59 2.64 3.18 2.07 0.83 0.33 0.30 0.19 0.28 0.44 0.34 0.30 0.25 0.33 1.02 0.75 0.78 0.56 0.66 0.66 0.55 0.58 1.52 1.33 0.83 0.74 0.51 0.55 0.26 0.42 0.46 0.39 0.30 0.40 0.17 0.03 0.06 0.02 0.01 0.01 0.00 0.00 0.00
4.07 3.13 3.51 3.96 2.18 0.99 0.79 0.58 0.45 0.22 0.24 0.32 0.29 0.38 0.58 0.42 0.55 0.62 0.51 0.44 0.42 0.71 0.69 0.79 0.98 0.82 0.69 1.08 1.11 1.01 0.74 0.37 0.48 0.50 0.20 0.16 0.07 0.09 0.10 0.05 0.02 0.01 0.01 0.00 0.00
3.92 2.65 2.03 2.52 1.80 0.96 1.22 1.00 0.34 0.33 0.43 0.54 0.45 0.31 0.55 0.87 0.62 0.55 0.48 0.57 0.58 0.75 1.00 1.42 1.22 0.51 0.16 0.11 0.29 0.43 0.66 0.57 0.59 0.35 0.30 0.08 0.01 0.03 0.10 0.07 0.04 0.04 0.01 0.00 0.00
3.17 1.69 1.64 1.09 0.64 1.10 1.52 1.08 0.29 0.37 0.53 0.43 0.47 0.19 0.32 0.50 0.55 0.70 0.88 0.87 0.97 0.99 1.48 1.70 1.36 0.47 0.18 0.04 0.06 0.12 0.17 0.31 0.39 0.20 0.10 0.05 0.03 0.03 0.03 0.09 0.14 0.10 0.05 0.01 0.00
2.22 1.28 1.91 1.82 1.08 1.40 1.30 0.79 0.67 0.67 0.48 0.14 0.17 0.49 0.39 0.26 0.26 0.62 0.86 0.89 0.95 1.01 1.25 1.52 1.21 0.61 0.44 0.14 0.26 0.32 0.06 0.11 0.23 0.24 0.18 0.17 0.12 0.02 0.03 0.13 0.41 0.22 0.09 0.06 0.01

GFSSW_prec_precacc_222.txt.gz
Total_Precipitation_Accumulation
0.10 0.12 0.15 0.15 0.15 0.16 0.18 0.18 0.18 0.17 0.16 0.15 0.15 0.13 0.14 0.17 0.13 0.09 0.06 0.05 0.02 0.00 0.01 0.01 0.02 0.04 0.18 0.18 0.10 0.06 0.05 0.01 0.00 0.00 0.00 0.00 0.00 0.00 0.00 0.00 0.00 0.00 0.00 0.00 0.00
0.09 0.12 0.15 0.14 0.16 0.16 0.18 0.17 0.16 0.16 0.16 0.18 0.20 0.21 0.28 0.26 0.07 0.06 0.07 0.02 0.01 0.01 0.01 0.01 0.02 0.05 0.11 0.16 0.19 0.12 0.03 0.00 0.00 0.00 0.00 0.00 0.00 0.00 0.00 0.00 0.00 0.00 0.00 0.00 0.00
0.11 0.13 0.12 0.14 0.16 0.16 0.17 0.17 0.17 0.16 0.14 0.17 0.22 0.35 0.47 0.19 0.04 0.05 0.04 0.03 0.06 0.04 0.01 0.01 0.02 0.11 0.12 0.15 0.16 0.07 0.02 0.00 0.00 0.00 0.00 0.00 0.00 0.00 0.00 0.00 0.00 0.00 0.00 0.00 0.00
0.17 0.17 0.14 0.15 0.18 0.17 0.17 0.16 0.17 0.19 0.19 0.19 0.29 0.45 0.36 0.15 0.06 0.02 0.04 0.02 0.04 0.03 0.04 0.03 0.08 0.13 0.10 0.10 0.10 0.12 0.01 0.00 0.00 0.00 0.01 0.02 0.01 0.01 0.00 0.00 0.00 0.00 0.00 0.00 0.00
0.18 0.20 0.23 0.22 0.21 0.20 0.16 0.15 0.16 0.20 0.20 0.20 0.34 0.51 0.33 0.15 0.05 0.00 0.00 0.02 0.03 0.05 0.06 0.05 0.08 0.14 0.13 0.06 0.12 0.15 0.05 0.04 0.02 0.04 0.04 0.03 0.04 0.02 0.00 0.00 0.00 0.00 0.00 0.00 0.00
0.23 0.26 0.27 0.30 0.31 0.27 0.20 0.22 0.25 0.26 0.21 0.21 0.42 0.49 0.34 0.14 0.00 0.00 0.00 0.00 0.01 0.05 0.14 0.14 0.09 0.12 0.17 0.06 0.11 0.11 0.08 0.06 0.05 0.07 0.05 0.08 0.05 0.03 0.00 0.00 0.00 0.00 0.00 0.00 0.00
0.25 0.28 0.38 0.36 0.26 0.26 0.34 0.36 0.32 0.25 0.26 0.35 0.50 0.44 0.35 0.07 0.00 0.00 0.01 0.04 0.04 0.07 0.07 0.17 0.26 0.30 0.25 0.14 0.05 0.11 0.15 0.12 0.05 0.08 0.12 0.16 0.13 0.01 0.00 0.01 0.03 0.01 0.00 0.00 0.00
0.28 0.29 0.31 0.31 0.40 0.42 0.34 0.30 0.39 0.42 0.42 0.41 0.36 0.50 0.33 0.00 0.00 0.00 0.00 0.03 0.08 0.13 0.14 0.18 0.40 0.35 0.32 0.25 0.12 0.20 0.29 0.17 0.02 0.05 0.11 0.46 0.42 0.00 0.00 0.03 0.01 0.00 0.00 0.00 0.00
0.37 0.35 0.33 0.33 0.36 0.43 0.44 0.45 0.41 0.38 0.44 0.43 0.46 0.56 0.21 0.00 0.00 0.00 0.00 0.00 0.05 0.16 0.18 0.29 0.45 0.37 0.33 0.37 0.37 0.26 0.23 0.07 0.02 0.07 0.25 0.35 0.26 0.00 0.00 0.02 0.02 0.02 0.02 0.01 0.00
0.44 0.43 0.41 0.40 0.48 0.66 0.71 0.61 0.46 0.44 0.32 0.45 0.75 0.93 0.18 0.00 0.00 0.00 0.00 0.00 0.01 0.13 0.32 0.37 0.44 0.38 0.39 0.56 0.44 0.14 0.13 0.07 0.06 0.06 0.24 0.33 0.25 0.04 0.01 0.03 0.02 0.01 0.00 0.00 0.00
0.48 0.53 0.54 0.60 0.63 0.87 1.04 0.93 0.95 0.84 0.72 0.36 0.31 0.26 0.06 0.03 0.05 0.02 0.01 0.01 0.03 0.15 0.13 0.21 0.31 0.30 0.17 0.25 0.12 0.11 0.15 0.13 0.02 0.01 0.19 0.25 0.18 0.06 0.03 0.03 0.00 0.00 0.00 0.00 0.00
0.60 0.63 0.79 0.88 0.85 0.90 0.95 0.80 0.64 1.00 0.66 0.18 0.12 0.10 0.05 0.04 0.12 0.09 0.11 0.16 0.08 0.06 0.11 0.34 0.26 0.02 0.03 0.09 0.20 0.21 0.16 0.07 0.07 0.03 0.12 0.10 0.05 0.03 0.04 0.01 0.00 0.00 0.00 0.00 0.01
0.79 0.82 0.96 1.06 1.16 0.96 0.70 0.56 0.52 0.79 1.17 0.27 0.07 0.05 0.01 0.08 0.11 0.11 0.16 0.33 0.15 0.09 0.10 0.17 0.12 0.04 0.06 0.14 0.18 0.28 0.28 0.10 0.05 0.02 0.03 0.03 0.02 0.00 0.00 0.00 0.00 0.00 0.00 0.00 0.02
0.94 1.05 1.22 1.33 1.38 0.86 0.83 0.77 0.76 1.34 2.24 0.47 0.04 0.06 0.01 0.09 0.16 0.06 0.13 0.39 0.53 0.11 0.10 0.19 0.06 0.14 0.16 0.15 0.17 0.21 0.17 0.16 0.07 0.15 0.13 0.07 0.12 0.00 0.00 0.00 0.00 0.00 0.00 0.00 0.02
1.29 1.30 1.47 1.76 1.16 0.99 0.82 0.91 1.39 2.28 3.18 0.37 0.07 0.04 0.03 0.14 0.10 0.06 0.18 0.50 0.62 0.42 0.25 0.15 0.03 0.23 0.27 0.15 0.13 0.16 0.08 0.18 0.24 0.17 0.13 0.07 0.16 0.04 0.00 0.00 0.00 0.00 0.00 0.00 0.00
1.26 1.70 1.59 1.41 1.30 0.75 0.79 1.57 2.46 3.66 2.84 0.34 0.16 0.11 0.14 0.11 0.04 0.23 0.40 0.67 0.74 0.76 0.57 0.17 0.04 0.13 0.16 0.09 0.13 0.16 0.36 0.38 0.67 0.67 0.92 0.24 0.09 0.05 0.00 0.00 0.00 0.00 0.00 0.00 0.00
1.71 1.90 2.02 1.50 1.32 1.09 1.74 3.12 4.17 3.27 0.76 0.36 0.20 0.21 0.24 0.22 0.16 0.29 1.03 0.99 0.94 1.36 1.15 0.48 0.14 0.02 0.13 0.24 0.42 0.72 0.91 1.68 1.85 1.79 1.16 0.08 0.07 0.04 0.00 0.00 0.00 0.00 0.00 0.00 0.00
1.94 2.05 1.53 1.34 1.17 1.88 3.01 4.14 4.51 1.01 0.29 0.23 0.19 0.26 0.35 0.40 0.35 0.19 0.44 0.77 0.82 0.82 1.16 0.66 0.36 0.08 0.11 0.19 0.40 0.84 1.11 1.22 0.96 0.78 0.30 0.04 0.05 0.01 0.00 0.00 0.00 0.00 0.00 0.00 0.00
2.11 1.85 1.77 1.25 1.10 2.18 3.87 4.80 2.13 0.50 0.27 0.23 0.20 0.41 0.43 0.66 0.88 0.55 0.27 0.38 0.71 0.90 1.35 1.24 0.27 0.04 0.04 0.03 0.16 0.47 0.97 0.69 0.35 0.18 0.24 0.13 0.04 0.00 0.00 0.00 0.00 0.00 0.00 0.00 0.00
2.30 2.07 2.00 1.47 1.90 2.87 4.17 3.03 0.77 0.21 0.30 0.29 0.47 0.44 0.57 0.59 1.01 1.15 0.69 0.23 0.27 0.65 1.10 1.33 0.96 0.11 0.10 0.19 0.16 0.25 0.40 0.68 1.23 1.02 0.31 0.06 0.02 0.00 0.00 0.00 0.00 0.00 0.00 0.00 0.00
2.66 2.76 1.78 1.91 2.98 4.09 4.01 1.35 0.26 0.09 0.28 0.59 0.44 0.45 0.42 0.74 0.95 1.15 1.28 0.47 0.29 0.25 0.75 1.63 1.48 0.51 0.28 0.43 0.24 0.35 0.63 0.71 1.02 0.66 0.40 0.19 0.02 0.01 0.01 0.01 0.00 0.00 0.00 0.00 0.00
3.18 2.87 1.78 2.29 4.01 3.91 1.75 0.48 0.19 0.11 0.24 0.41 0.49 0.31 0.23 0.37 1.06 1.21 0.88 0.91 0.55 0.39 0.39 0.82 1.77 0.93 0.30 0.30 0.27 0.24 0.64 0.78 1.00 0.80 0.44 0.36 0.15 0.01 0.02 0.01 0.00 0.00 0.00 0.00 0.00
3.59 2.37 2.59 2.64 3.18 2.07 0.83 0.33 0.30 0.19 0.28 0.44 0.34 0.32 0.26 0.33 1.02 0.75 0.78 0.57 0.71 0.76 0.66 0.66 1.58 1.48 0.88 0.77 0.52 0.55 0.27 0.42 0.46 0.39 0.30 0.40 0.17 0.03 0.06 0.02 0.01 0.01 0.00 0.00 0.00
4.07 3.13 3.51 3.96 2.18 0.99 0.79 0.58 0.45 0.22 0.24 0.32 0.29 0.39 0.58 0.42 0.55 0.62 0.53 0.45 0.45 0.80 0.84 0.83 1.04 0.92 0.70 1.09 1.11 1.01 0.74 0.37 0.48 0.50 0.20 0.16 0.07 0.09 0.10 0.05 0.02 0.01 0.01 0.00 0.00
3.92 2.65 2.03 2.52 1.80 0.96 1.22 1.01 0.34 0.33 0.43 0.54 0.46 0.31 0.57 0.89 0.62 0.55 0.48 0.57 0.58 0.77 1.03 1.49 1.23 0.58 0.17 0.11 0.29 0.43 0.66 0.57 0.59 0.35 0.30 0.08 0.01 0.03 0.10 0.07 0.04 0.04 0.01 0.00 0.00
3.17 1.69 1.64 1.09 0.64 1.10 1.52 1.08 0.29 0.37 0.53 0.43 0.47 0.19 0.32 0.52 0.59 0.71 0.88 0.88 0.99 1.01 1.51 1.72 1.38 0.47 0.18 0.04 0.06 0.12 0.17 0.32 0.39 0.20 0.10 0.05 0.03 0.03 0.03 0.09 0.14 0.10 0.05 0.01 0.00
2.22 1.28 1.91 1.82 1.08 1.40 1.30 0.79 0.67 0.67 0.48 0.14 0.17 0.49 0.39 0.26 0.26 0.62 0.86 0.89 0.95 1.06 1.30 1.55 1.21 0.61 0.44 0.14 0.26 0.32 0.06 0.11 0.23 0.24 0.18 0.17 0.12 0.02 0.03 0.13 0.41 0.22 0.09 0.06 0.01

GFSSW_prec_precacc_225.txt.gz
Total_Precipitation_Accumulation
0.10 0.13 0.16 0.15 0.15 0.17 0.19 0.20 0.19 0.18 0.17 0.15 0.15 0.13 0.14 0.17 0.14 0.09 0.06 0.05 0.02 0.00 0.01 0.01 0.02 0.04 0.20 0.24 0.23 0.17 0.09 0.01 0.00 0.00 0.00 0.00 0.00 0.00 0.00 0.00 0.00 0.00 0.00 0.00 0.00
0.09 0.13 0.16 0.15 0.16 0.17 0.18 0.18 0.16 0.16 0.16 0.18 0.20 0.22 0.29 0.27 0.07 0.06 0.07 0.02 0.01 0.01 0.01 0.01 0.02 0.06 0.14 0.21 0.31 0.24 0.08 0.00 0.00 0.00 0.00 0.00 0.00 0.00 0.00 0.00 0.00 0.00 0.00 0.00 0.00
0.11 0.14 0.13 0.15 0.17 0.17 0.17 0.18 0.17 0.16 0.15 0.17 0.22 0.36 0.48 0.20 0.04 0.05 0.06 0.04 0.07 0.04 0.01 0.01 0.02 0.12 0.14 0.20 0.23 0.14 0.04 0.00 0.00 0.00 0.00 0.00 0.00 0.00 0.00 0.00 0.00 0.00 0.00 0.00 0.00
0.17 0.17 0.15 0.15 0.19 0.18 0.17 0.16 0.17 0.19 0.19 0.19 0.29 0.46 0.37 0.16 0.06 0.02 0.05 0.02 0.04 0.03 0.04 0.04 0.10 0.15 0.11 0.12 0.13 0.17 0.03 0.01 0.00 0.00 0.01 0.02 0.01 0.01 0.00 0.00 0.00 0.00 0.00 0.00 0.00
0.19 0.20 0.23 0.23 0.21 0.20 0.16 0.15 0.16 0.20 0.20 0.20 0.34 0.51 0.34 0.16 0.05 0.00 0.00 0.02 0.03 0.05 0.07 0.07 0.10 0.14 0.13 0.06 0.14 0.19 0.09 0.09 0.03 0.05 0.04 0.03 0.04 0.02 0.00 0.00 0.00 0.00 0.00 0.00 0.00
0.24 0.26 0.27 0.30 0.32 0.27 0.20 0.22 0.25 0.26 0.21 0.21 0.42 0.50 0.37 0.15 0.00 0.00 0.00 0.00 0.01 0.05 0.14 0.17 0.11 0.13 0.18 0.07 0.12 0.12 0.11 0.13 0.11 0.08 0.06 0.08 0.05 0.03 0.00 0.00 0.00 0.00 0.00 0.00 0.00
0.25 0.29 0.38 0.36 0.26 0.26 0.34 0.37 0.32 0.25 0.26 0.35 0.50 0.46 0.37 0.08 0.00 0.00 0.01 0.04 0.04 0.07 0.07 0.18 0.27 0.34 0.27 0.16 0.06 0.13 0.22 0.21 0.12 0.15 0.14 0.18 0.14 0.01 0.00 0.01 0.03 0.01 0.00 0.00 0.00
0.28 0.29 0.32 0.31 0.40 0.42 0.35 0.30 0.39 0.42 0.42 0.41 0.36 0.51 0.35 0.00 0.00 0.00 0.00 0.03 0.08 0.13 0.14 0.18 0.41 0.37 0.33 0.26 0.14 0.23 0.35 0.23 0.04 0.15 0.20 0.52 0.45 0.00 0.00 0.03 0.01 0.00 0.00 0.01 0.00
0.37 0.35 0.33 0.34 0.36 0.43 0.44 0.45 0.41 0.38 0.44 0.43 0.46 0.56 0.21 0.00 0.00 0.00 0.00 0.00 0.05 0.16 0.18 0.29 0.47 0.42 0.38 0.39 0.39 0.31 0.26 0.08 0.02 0.08 0.30 0.46 0.31 0.00 0.00 0.02 0.02 0.02 0.02 0.01 0.00
0.45 0.43 0.41 0.40 0.49 0.66 0.71 0.61 0.46 0.44 0.32 0.45 0.75 0.93 0.18 0.00 0.00 0.00 0.00 0.00 0.01 0.13 0.32 0.37 0.46 0.50 0.50 0.60 0.45 0.15 0.14 0.07 0.07 0.06 0.25 0.34 0.26 0.04 0.01 0.03 0.02 0.01 0.00 0.00 0.00
0.48 0.53 0.54 0.61 0.63 0.87 1.04 0.93 0.95 0.84 0.72 0.36 0.31 0.26 0.06 0.03 0.05 0.02 0.01 0.02 0.04 0.15 0.13 0.21 0.32 0.38 0.26 0.28 0.12 0.11 0.16 0.13 0.02 0.01 0.20 0.26 0.18 0.06 0.03 0.04 0.00 0.00 0.00 0.00 0.00
0.60 0.63 0.79 0.89 0.85 0.90 0.95 0.80 0.65 1.02 0.67 0.18 0.12 0.10 0.05 0.04 0.12 0.09 0.11 0.16 0.08 0.06 0.12 0.35 0.26 0.02 0.04 0.11 0.21 0.21 0.17 0.08 0.07 0.03 0.16 0.11 0.05 0.03 0.04 0.01 0.00 0.00 0.00 0.00 0.01
0.79 0.83 0.96 1.06 1.16 0.96 0.70 0.56 0.52 0.79 1.17 0.27 0.07 0.05 0.01 0.08 0.11 0.11 0.16 0.33 0.15 0.09 0.10 0.17 0.12 0.04 0.07 0.17 0.21 0.29 0.29 0.10 0.06 0.04 0.08 0.06 0.05 0.01 0.00 0.00 0.00 0.01 0.00 0.00 0.02
0.94 1.05 1.22 1.33 1.38 0.86 0.83 0.77 0.76 1.34 2.24 0.47 0.04 0.06 0.01 0.09 0.16 0.06 0.13 0.39 0.53 0.11 0.10 0.19 0.06 0.14 0.16 0.17 0.18 0.21 0.17 0.17 0.09 0.20 0.28 0.09 0.13 0.00 0.00 0.00 0.00 0.00 0.00 0.00 0.02
1.30 1.30 1.47 1.76 1.16 0.99 0.82 0.91 1.39 2.28 3.18 0.37 0.07 0.04 0.03 0.14 0.10 0.06 0.18 0.50 0.62 0.42 0.26 0.15 0.03 0.24 0.31 0.15 0.14 0.16 0.09 0.19 0.26 0.25 0.26 0.12 0.18 0.04 0.00 0.00 0.00 0.00 0.00 0.00 0.00
1.26 1.70 1.59 1.41 1.30 0.75 0.79 1.57 2.46 3.66 2.84 0.34 0.16 0.11 0.14 0.11 0.04 0.24 0.45 0.68 0.75 0.79 0.63 0.19 0.05 0.13 0.18 0.09 0.14 0.16 0.38 0.40 0.73 0.82 1.19 0.34 0.11 0.05 0.00 0.00 0.00 0.00 0.00 0.00 0.00
1.71 1.90 2.02 1.50 1.32 1.09 1.74 3.12 4.17 3.27 0.76 0.36 0.20 0.21 0.24 0.22 0.16 0.29 1.09 1.07 0.95 1.37 1.17 0.51 0.14 0.03 0.15 0.28 0.44 0.75 0.97 1.89 2.07 2.15 1.41 0.11 0.10 0.06 0.00 0.00 0.00 0.00 0.00 0.00 0.00
1.94 2.05 1.53 1.34 1.17 1.88 3.01 4.14 4.51 1.01 0.29 0.23 0.19 0.26 0.35 0.40 0.35 0.19 0.49 0.79 0.83 0.86 1.21 0.68 0.36 0.08 0.14 0.20 0.43 0.85 1.14 1.45 1.14 0.92 0.36 0.08 0.12 0.01 0.00 0.00 0.00 0.00 0.00 0.00 0.00
2.11 1.85 1.77 1.25 1.10 2.18 3.87 4.80 2.13 0.50 0.27 0.23 0.20 0.41 0.43 0.66 0.90 0.60 0.28 0.39 0.72 0.95 1.40 1.26 0.28 0.04 0.04 0.03 0.17 0.52 1.01 0.71 0.46 0.31 0.29 0.16 0.05 0.00 0.00 0.00 0.00 0.00 0.00 0.00 0.00
2.30 2.07 2.00 1.47 1.90 2.87 4.17 3.03 0.77 0.21 0.30 0.29 0.48 0.44 0.57 0.59 1.01 1.20 0.77 0.46 0.44 0.70 1.13 1.35 0.98 0.11 0.11 0.20 0.18 0.31 0.45 0.75 1.36 1.12 0.40 0.10 0.02 0.00 0.00 0.00 0.00 0.00 0.00 0.00 0.00
2.66 2.76 1.78 1.91 2.98 4.09 4.01 1.35 0.26 0.09 0.28 0.59 0.45 0.46 0.42 0.75 0.95 1.16 1.34 0.59 0.56 0.54 0.78 1.65 1.57 0.60 0.31 0.45 0.27 0.38 0.82 0.83 1.16 0.70 0.40 0.20 0.02 0.01 0.01 0.01 0.00 0.00 0.00 0.00 0.00
3.18 2.87 1.78 2.29 4.01 3.91 1.75 0.48 0.19 0.11 0.24 0.41 0.49 0.32 0.26 0.37 1.06 1.21 0.88 0.96 0.64 0.55 0.61 0.88 1.83 1.10 0.32 0.30 0.27 0.26 0.66 0.88 1.07 0.89 0.44 0.36 0.15 0.01 0.02 0.01 0.00 0.00 0.00 0.00 0.00
3.59 2.37 2.59 2.64 3.18 2.07 0.83 0.33 0.30 0.19 0.28 0.44 0.34 0.35 0.27 0.33 1.03 0.75 0.78 0.57 0.71 0.80 0.93 0.80 1.67 1.62 0.95 0.81 0.53 0.58 0.31 0.48 0.51 0.45 0.35 0.41 0.17 0.03 0.06 0.02 0.01 0.01 0.00 0.00 0.00
4.07 3.13 3.51 3.96 2.18 0.99 0.80 0.58 0.45 0.22 0.24 0.32 0.30 0.39 0.58 0.42 0.55 0.62 0.53 0.45 0.45 0.82 0.95 0.93 1.11 1.01 0.72 1.10 1.12 1.01 0.75 0.39 0.50 0.52 0.21 0.17 0.07 0.09 0.10 0.05 0.02 0.01 0.01 0.00 0.00
3.92 2.65 2.03 2.52 1.80 0.96 1.22 1.01 0.34 0.33 0.43 0.54 0.46 0.31 0.58 0.90 0.62 0.55 0.48 0.57 0.58 0.77 1.05 1.59 1.26 0.65 0.19 0.11 0.29 0.43 0.66 0.57 0.59 0.35 0.30 0.08 0.01 0.03 0.10 0.07 0.04 0.04 0.01 0.00 0.00
3.17 1.69 1.64 1.09 0.64 1.10 1.52 1.08 0.29 0.37 0.53 0.43 0.47 0.19 0.32 0.53 0.61 0.73 0.89 0.88 0.99 1.01 1.51 1.75 1.43 0.50 0.21 0.04 0.06 0.12 0.19 0.33 0.40 0.20 0.10 0.05 0.03 0.03 0.03 0.09 0.14 0.10 0.05 0.01 0.00
2.22 1.28 1.91 1.82 1.08 1.40 1.30 0.79 0.67 0.67 0.48 0.14 0.17 0.49 0.39 0.26 0.26 0.62 0.86 0.90 0.96 1.08 1.32 1.56 1.25 0.62 0.47 0.15 0.27 0.34 0.07 0.12 0.24 0.24 0.18 0.17 0.12 0.02 0.03 0.13 0.41 0.22 0.09 0.06 0.01

GFSSW_prec_precacc_228.txt.gz
Total_Precipitation_Accumulation
0.11 0.13 0.17 0.16 0.16 0.17 0.20 0.20 0.19 0.18 0.17 0.16 0.16 0.13 0.15 0.19 0.15 0.09 0.06 0.05 0.02 0.00 0.01 0.01 0.02 0.04 0.21 0.25 0.34 0.31 0.15 0.01 0.00 0.00 0.00 0.00 0.00 0.00 0.00 0.00 0.00 0.00 0.00 0.00 0.00
0.10 0.13 0.16 0.15 0.16 0.18 0.19 0.18 0.16 0.16 0.16 0.19 0.20 0.22 0.30 0.29 0.08 0.06 0.08 0.05 0.01 0.01 0.01 0.01 0.02 0.06 0.16 0.22 0.38 0.47 0.15 0.01 0.00 0.00 0.00 0.00 0.00 0.00 0.00 0.00 0.00 0.00 0.00 0.00 0.00
0.12 0.14 0.13 0.15 0.17 0.18 0.17 0.18 0.17 0.16 0.15 0.17 0.23 0.36 0.48 0.21 0.05 0.06 0.09 0.04 0.07 0.04 0.01 0.01 0.03 0.13 0.15 0.21 0.26 0.24 0.15 0.01 0.00 0.00 0.00 0.00 0.00 0.00 0.00 0.00 0.00 0.00 0.00 0.00 0.00
0.17 0.17 0.15 0.16 0.19 0.18 0.17 0.16 0.17 0.19 0.20 0.20 0.30 0.46 0.38 0.18 0.06 0.02 0.07 0.02 0.04 0.03 0.04 0.04 0.10 0.16 0.11 0.13 0.13 0.19 0.05 0.04 0.02 0.01 0.01 0.02 0.01 0.01 0.00 0.00 0.00 0.00 0.00 0.00 0.00
0.19 0.21 0.23 0.24 0.22 0.21 0.16 0.16 0.17 0.20 0.21 0.21 0.34 0.52 0.37 0.17 0.05 0.00 0.00 0.02 0.03 0.05 0.07 0.08 0.11 0.15 0.13 0.06 0.14 0.20 0.10 0.13 0.07 0.07 0.05 0.03 0.04 0.02 0.00 0.00 0.00 0.00 0.00 0.00 0.00
0.24 0.27 0.28 0.31 0.32 0.27 0.20 0.22 0.25 0.26 0.21 0.21 0.42 0.51 0.39 0.16 0.00 0.00 0.00 0.00 0.01 0.05 0.14 0.17 0.13 0.14 0.18 0.07 0.13 0.12 0.11 0.16 0.19 0.15 0.09 0.09 0.05 0.03 0.00 0.00 0.00 0.00 0.00 0.00 0.01
0.25 0.29 0.39 0.37 0.26 0.27 0.35 0.37 0.32 0.25 0.26 0.35 0.50 0.47 0.39 0.08 0.00 0.00 0.01 0.04 0.04 0.07 0.07 0.18 0.27 0.35 0.29 0.16 0.06 0.13 0.23 0.25 0.18 0.27 0.24 0.21 0.16 0.01 0.00 0.01 0.03 0.01 0.00 0.00 0.01
0.29 0.30 0.32 0.31 0.41 0.43 0.35 0.30 0.39 0.42 0.42 0.41 0.36 0.52 0.35 0.00 0.00 0.00 0.00 0.03 0.08 0.13 0.14 0.18 0.42 0.38 0.33 0.28 0.15 0.23 0.37 0.26 0.04 0.21 0.39 0.64 0.46 0.00 0.00 0.03 0.01 0.00 0.00 0.01 0.01
0.38 0.35 0.34 0.34 0.37 0.44 0.44 0.45 0.41 0.38 0.44 0.43 0.46 0.56 0.21 0.00 0.00 0.00 0.00 0.00 0.05 0.16 0.18 0.30 0.48 0.46 0.39 0.41 0.41 0.33 0.27 0.08 0.03 0.09 0.37 0.69 0.38 0.00 0.00 0.02 0.02 0.02 0.02 0.02 0.01
0.45 0.44 0.41 0.41 0.49 0.66 0.71 0.61 0.46 0.44 0.32 0.45 0.75 0.93 0.18 0.00 0.00 0.00 0.00 0.00 0.01 0.13 0.32 0.38 0.48 0.56 0.54 0.65 0.47 0.16 0.14 0.07 0.07 0.07 0.30 0.39 0.30 0.04 0.02 0.03 0.02 0.01 0.01 0.01 0.02
0.48 0.53 0.54 0.61 0.63 0.87 1.04 0.93 0.96 0.84 0.72 0.36 0.31 0.26 0.06 0.03 0.05 0.02 0.01 0.02 0.05 0.15 0.13 0.21 0.35 0.47 0.30 0.29 0.13 0.12 0.16 0.13 0.02 0.02 0.26 0.27 0.19 0.06 0.03 0.04 0.01 0.00 0.00 0.02 0.04
0.60 0.64 0.79 0.89 0.85 0.90 0.95 0.80 0.66 1.03 0.67 0.18 0.12 0.10 0.05 0.04 0.12 0.09 0.11 0.16 0.08 0.06 0.12 0.35 0.28 0.03 0.07 0.17 0.24 0.23 0.18 0.08 0.08 0.04 0.18 0.14 0.08 0.04 0.05 0.01 0.02 0.00 0.00 0.02 0.07
0.79 0.83 0.96 1.06 1.16 0.96 0.70 0.56 0.52 0.80 1.18 0.27 0.07 0.05 0.01 0.08 0.11 0.11 0.16 0.33 0.15 0.09 0.10 0.17 0.12 0.04 0.08 0.30 0.38 0.34 0.29 0.11 0.06 0.06 0.10 0.10 0.10 0.05 0.02 0.00 0.01 0.04 0.00 0.01 0.03
0.94 1.06 1.22 1.33 1.38 0.86 0.83 0.77 0.76 1.34 2.24 0.47 0.04 0.06 0.01 0.09 0.16 0.06 0.13 0.39 0.53 0.11 0.10 0.19 0.06 0.14 0.16 0.21 0.34 0.40 0.18 0.18 0.11 0.24 0.35 0.13 0.19 0.01 0.00 0.00 0.00 0.03 0.03 0.01 0.03
1.30 1.30 1.47 1.76 1.16 0.99 0.82 0.91 1.39 2.28 3.18 0.37 0.07 0.04 0.03 0.14 0.10 0.06 0.18 0.50 0.63 0.42 0.27 0.15 0.03 0.24 0.31 0.16 0.19 0.28 0.11 0.20 0.28 0.30 0.32 0.21 0.33 0.05 0.00 0.00 0.00 0.00 0.01 0.00 0.00
1.26 1.70 1.59 1.41 1.30 0.75 0.79 1.57 2.46 3.66 2.84 0.34 0.16 0.11 0.14 0.11 0.04 0.24 0.45 0.70 0.76 0.80 0.64 0.19 0.05 0.14 0.18 0.09 0.15 0.22 0.41 0.44 0.76 0.90 1.38 0.37 0.24 0.09 0.00 0.00 0.00 0.00 0.00 0.00 0.00
1.71 1.90 2.02 1.50 1.32 1.09 1.74 3.12 4.17 3.27 0.76 0.36 0.20 0.21 0.24 0.22 0.16 0.29 1.10 1.10 0.97 1.40 1.19 0.52 0.15 0.03 0.18 0.28 0.46 0.79 1.01 1.92 2.13 2.32 1.53 0.11 0.17 0.10 0.00 0.00 0.00 0.00 0.00 0.00 0.00
1.94 2.05 1.53 1.34 1.17 1.88 3.01 4.14 4.51 1.01 0.29 0.23 0.19 0.26 0.35 0.40 0.35 0.19 0.49 0.81 0.86 0.94 1.23 0.69 0.36 0.08 0.16 0.22 0.46 0.86 1.15 1.46 1.20 0.93 0.38 0.09 0.16 0.01 0.00 0.00 0.00 0.00 0.00 0.00 0.00
2.11 1.85 1.77 1.25 1.10 2.18 3.87 4.80 2.13 0.50 0.27 0.23 0.20 0.41 0.43 0.66 0.90 0.61 0.29 0.45 0.80 1.09 1.43 1.27 0.29 0.04 0.04 0.04 0.19 0.57 1.02 0.71 0.50 0.33 0.30 0.17 0.05 0.00 0.00 0.00 0.00 0.00 0.00 0.00 0.00
2.30 2.07 2.00 1.47 1.90 2.87 4.17 3.03 0.77 0.21 0.30 0.30 0.48 0.44 0.57 0.59 1.01 1.21 0.81 0.55 0.62 0.88 1.28 1.46 1.02 0.11 0.11 0.23 0.22 0.38 0.47 0.76 1.40 1.25 0.47 0.11 0.02 0.00 0.00 0.00 0.00 0.00 0.00 0.00 0.00
2.66 2.76 1.78 1.91 2.98 4.09 4.01 1.35 0.26 0.09 0.28 0.60 0.45 0.47 0.43 0.76 0.95 1.16 1.35 0.62 0.65 0.62 0.90 1.74 1.63 0.68 0.35 0.46 0.29 0.44 0.95 0.85 1.18 0.72 0.42 0.21 0.02 0.01 0.01 0.01 0.00 0.00 0.00 0.00 0.00
3.18 2.87 1.78 2.29 4.01 3.91 1.75 0.48 0.19 0.11 0.24 0.41 0.49 0.34 0.28 0.37 1.06 1.21 0.88 0.96 0.65 0.60 0.75 0.99 1.96 1.22 0.38 0.30 0.27 0.26 0.68 0.89 1.09 0.93 0.44 0.36 0.15 0.01 0.02 0.01 0.00 0.00 0.00 0.00 0.00
3.59 2.37 2.59 2.64 3.18 2.07 0.83 0.33 0.30 0.19 0.28 0.44 0.34 0.37 0.28 0.33 1.04 0.75 0.78 0.57 0.71 0.80 1.10 1.04 1.88 1.71 1.09 0.89 0.57 0.60 0.32 0.54 0.51 0.46 0.37 0.41 0.17 0.03 0.06 0.02 0.01 0.01 0.00 0.00 0.00
4.07 3.13 3.51 3.96 2.18 0.99 0.80 0.58 0.45 0.22 0.24 0.32 0.30 0.39 0.58 0.42 0.55 0.63 0.53 0.45 0.45 0.83 1.02 1.07 1.26 1.06 0.74 1.12 1.14 1.04 0.76 0.47 0.55 0.54 0.25 0.17 0.07 0.09 0.10 0.05 0.02 0.01 0.01 0.00 0.00
3.92 2.65 2.03 2.52 1.80 0.96 1.22 1.01 0.34 0.33 0.43 0.54 0.46 0.31 0.58 0.90 0.62 0.55 0.48 0.58 0.58 0.77 1.06 1.63 1.36 0.73 0.21 0.11 0.29 0.43 0.67 0.62 0.66 0.36 0.31 0.10 0.01 0.03 0.10 0.07 0.04 0.04 0.01 0.00 0.00
3.17 1.69 1.64 1.09 0.64 1.10 1.52 1.08 0.29 0.37 0.53 0.43 0.47 0.19 0.32 0.53 0.61 0.73 0.90 0.89 1.00 1.02 1.51 1.76 1.48 0.57 0.29 0.04 0.06 0.13 0.22 0.35 0.41 0.20 0.11 0.06 0.04 0.03 0.03 0.09 0.14 0.10 0.05 0.01 0.00
2.22 1.28 1.91 1.82 1.08 1.40 1.30 0.79 0.67 0.67 0.48 0.14 0.17 0.49 0.39 0.26 0.26 0.62 0.86 0.90 0.97 1.10 1.33 1.57 1.30 0.66 0.57 0.21 0.29 0.38 0.10 0.14 0.25 0.25 0.18 0.18 0.12 0.02 0.03 0.13 0.41 0.22 0.09 0.06 0.01